Tracking 18980 objects as of 21-Feb-2018
HD Live streaming from Space Station
objects crossing your sky now

COSMOS 1257

Track COSMOS 1257 now!
10-day predictions
COSMOS 1257 is classified as:


NORAD ID: 12327
Int'l Code: 1981-022H
Perigee: 1,475.4 km
Apogee: 1,486.2 km
Inclination: 74.0 °
Period: 115.4 minutes
Semi major axis: 7851 km
RCS: 0.7143 m2 (medium)
Launch date: March 6, 1981
Source: Commonwealth of Independent States (former USSR) (CIS)
Launch site: PLESETSK MISSILE AND SPACE COMPLEX (PKMTR)
aabbcc
Your satellite tracking list
Your tracking list is empty




NASA's NSSDC Master Catalog

Two Line Element Set (TLE):
1 12327U 81022H   18050.64282479 +.00000002 +00000-0 +11923-3 0  9995
2 12327 074.0292 122.2945 0006826 173.9069 297.4344 12.47811819683757
Source of the keplerian elements: AFSPC